GW1065 Weather Reports


Display with metric or nautical units.
time (UTC)temp
F
wind
direction
speed
MPH
gust
MPH
rain 1hr
in
rain 24hr
in
rain mn
in
humidity
%
barometer
mb
20260906170103 95 0 0.0 3.0 0.00 0.00 0.00 59 1016.0
20260906164553 94 136 0.0 3.0 0.00 0.00 0.00 60 1016.1
20260906163108 94 0 0.0 1.0 0.00 0.00 0.00 62 1016.1
20260906161556 93 0 0.0 2.0 0.00 0.00 0.00 62 1016.1
20260906154600 91 0 0.0 2.0 0.00 0.00 0.00 67 1016.1
20260906153057 89 146 0.0 3.0 0.00 0.00 0.00 70 1015.9
20260906151559 87 0 0.0 1.0 0.00 0.00 0.00 74 1015.8
20260906144559 84 0 0.0 1.0 0.00 0.00 0.00 78 1015.8
20260906143103 82 0 0.0 1.0 0.00 0.00 0.00 80 1015.8
20260906141555 81 0 0.0 2.0 0.00 0.00 0.00 81 1016.0
20260906140059 80 140 0.0 2.0 0.00 0.00 0.00 82 1016.0
20260906134559 79 140 0.0 1.0 0.00 0.00 0.00 83 1015.9
20260906133101 78 0 0.0 2.0 0.00 0.00 0.00 83 1015.8
20260906131557 77 0 0.0 2.0 0.00 0.00 0.00 83 1015.7
20260906130056 77 0 0.0 1.0 0.00 0.00 0.00 84 1015.4
20260906124557 76 0 0.0 1.0 0.00 0.00 0.00 84 1015.3
20260906123059 76 0 0.0 0.0 0.00 0.00 0.00 83 1015.2
20260906121558 76 0 0.0 0.0 0.00 0.00 0.00 83 1015.0
20260906120114 76 0 0.0 0.0 0.00 0.00 0.00 83 1015.0
20260906114558 76 0 0.0 0.0 0.00 0.00 0.00 83 1014.6
20260906113100 76 0 0.0 0.0 0.00 0.00 0.00 83 1014.6
20260906111612 76 0 0.0 0.0 0.00 0.00 0.00 82 1014.4
20260906110057 76 0 0.0 0.0 0.00 0.00 0.00 82 1014.4
20260906104605 77 0 0.0 0.0 0.00 0.00 0.00 81 1014.4
20260906103057 77 0 0.0 0.0 0.00 0.00 0.00 81 1014.3
20260906101557 77 0 0.0 0.0 0.00 0.00 0.00 81 1014.3
20260906094548 77 0 0.0 0.0 0.00 0.00 0.00 81 1014.2
20260906093054 77 0 0.0 0.0 0.00 0.00 0.00 81 1014.1
20260906091550 77 0 0.0 0.0 0.00 0.00 0.00 81 1014.0
20260906084556 77 0 0.0 0.0 0.00 0.00 0.00 80 1013.9
20260906083054 77 0 0.0 0.0 0.00 0.00 0.00 80 1013.8
20260906081559 77 0 0.0 0.0 0.00 0.00 0.00 79 1013.7
20260906080109 78 0 0.0 0.0 0.00 0.00 0.00 78 1013.7
20260906074600 78 0 0.0 0.0 0.00 0.00 0.00 78 1013.5
20260906073051 78 0 0.0 0.0 0.00 0.00 0.00 77 1013.6
20260906071602 78 0 0.0 0.0 0.00 0.00 0.00 76 1013.6
20260906070056 79 0 0.0 0.0 0.00 0.00 0.00 76 1013.8
20260906064557 79 0 0.0 0.0 0.00 0.00 0.00 76 1013.9
20260906063102 79 0 0.0 0.0 0.00 0.00 0.00 75 1014.1
20260906061559 79 0 0.0 0.0 0.00 0.00 0.00 75 1014.1
20260906060058 79 0 0.0 0.0 0.00 0.00 0.00 75 1014.1
20260906054559 79 0 0.0 0.0 0.00 0.00 0.00 75 1014.1
20260906053056 79 0 0.0 0.0 0.00 0.00 0.00 75 1014.2
20260906051608 80 0 0.0 0.0 0.00 0.00 0.00 74 1014.3
20260906050055 80 0 0.0 0.0 0.00 0.00 0.00 73 1014.1
20260906044602 80 0 0.0 0.0 0.00 0.00 0.00 72 1014.0
20260906043055 81 0 0.0 0.0 0.00 0.00 0.00 71 1014.0
20260906041610 82 0 0.0 0.0 0.00 0.00 0.00 70 1013.8
20260906040110 82 0 0.0 0.0 0.00 0.00 0.00 68 1013.8
20260906034557 83 0 0.0 0.0 0.00 0.00 0.00 67 1013.5
20260906033054 83 0 0.0 0.0 0.00 0.00 0.00 67 1013.3
20260906031553 84 0 0.0 0.0 0.00 0.00 0.00 66 1013.3
20260906024613 85 0 0.0 0.0 0.00 0.00 0.00 63 1013.0
20260906023056 86 0 0.0 0.0 0.00 0.00 0.00 63 1013.0
20260906021556 87 0 0.0 0.0 0.00 0.00 0.00 62 1012.6
20260906020101 87 0 0.0 0.0 0.00 0.00 0.00 60 1012.5
20260906014602 88 0 0.0 0.0 0.00 0.00 0.00 59 1012.3
20260906013047 89 0 0.0 0.0 0.00 0.00 0.00 58 1012.3
20260906011558 90 0 0.0 0.0 0.00 0.00 0.00 58 1012.3
20260906010109 92 0 0.0 0.0 0.00 0.00 0.00 56 1012.3
20260906004553 93 0 0.0 0.0 0.00 0.00 0.00 54 1012.2
20260906003113 95 0 0.0 0.0 0.00 0.00 0.00 52 1012.3
20260906001556 97 0 0.0 0.0 0.00 0.00 0.00 49 1012.3
20260905234553 99 0 0.0 1.0 0.00 0.00 0.00 46 1012.1
20260905233053 99 0 0.0 0.0 0.00 0.00 0.00 45 1012.0
20260905231556 100 0 0.0 0.0 0.00 0.00 0.00 43 1011.8
20260905230106 100 0 0.0 0.0 0.00 0.00 0.00 42 1011.9
20260905224556 101 0 0.0 1.0 0.00 0.00 0.00 41 1011.8
20260905223053 101 0 0.0 1.0 0.00 0.00 0.00 39 1011.9
20260905221553 102 0 0.0 2.0 0.00 0.00 0.00 39 1011.8
20260905220056 101 0 0.0 1.0 0.00 0.00 0.00 40 1012.2
20260905214600 101 0 0.0 1.0 0.00 0.00 0.00 42 1012.3
20260905213057 100 0 0.0 2.0 0.00 0.00 0.00 41 1012.6
20260905211556 100 271 0.0 2.0 0.00 0.00 0.00 40 1012.8
20260905210052 100 105 0.0 2.0 0.00 0.00 0.00 41 1013.1
20260905204601 99 105 0.0 3.0 0.00 0.00 0.00 42 1013.1
20260905203059 99 0 0.0 2.0 0.00 0.00 0.00 41 1013.2
20260905201555 98 0 0.0 3.0 0.00 0.00 0.00 43 1013.3
20260905200107 99 0 0.0 2.0 0.00 0.00 0.00 42 1013.6
20260905194557 100 0 0.0 1.0 0.00 0.00 0.00 43 1013.8
20260905193109 99 0 0.0 0.0 0.00 0.00 0.00 44 1013.8
20260905191558 98 0 0.0 1.0 0.00 0.00 0.00 44 1014.1
20260905190100 97 0 0.0 3.0 0.00 0.00 0.00 44 1014.2
20260905184611 98 0 0.0 2.0 0.00 0.00 0.00 42 1014.1
20260905183100 98 234 0.0 3.0 0.00 0.00 0.00 45 1014.3
20260905181608 97 204 0.0 3.0 0.00 0.00 0.00 49 1014.5
20260905180108 97 0 0.0 2.0 0.00 0.00 0.00 49 1014.7
20260905174559 96 127 0.0 2.0 0.00 0.00 0.00 51 1014.9
20260905173103 95 0 0.0 3.0 0.00 0.00 0.00 54 1015.2
20260905171601 94 0 0.0 2.0 0.00 0.00 0.00 57 1015.4